991  
ASUS43 KLMK 131310  
RWRKY  
KENTUCKY REGIONAL WEATHER ROUNDUP  
NATIONAL WEATHER SERVICE LOUISVILLE KY  
900 AM EDT MON JUL 13 2020  
 
NOTE "FAIR" INDICATES FEW OR NO CLOUDS BELOW 12,000 FEET  
WITH NO SIGNIFICANT WEATHER AND/OR S TO VISIBILITY
.  
 
KYZ001>023-026-027-061>063-070>075-131400-  
WESTERN AND SOUTH CENTRAL KENTUCKY  
 
CITY SKY/WX TMP DP RH WIND PRES REMARKS
 
PADUCAH SUNNY 76 70 82 NE5 29.94S  
HENDERSON SUNNY 72 67 84 N6 29.96S  
OWENSBORO SUNNY 73 71 93 N3 29.96R  
HOPKINSVILLE SUNNY 73 73 100 N7 29.94S  
BOWLING GREEN SUNNY 75 69 81 VRB3 29.95R  
GLASGOW SUNNY 71 69 94 NE3 29.95R  

 
 
KYZ024-025-028>034-038-045-046-053-131400-  
NORTH CENTRAL KENTUCKY  
 
CITY SKY/WX TMP DP RH WIND PRES REMARKS
 
LOUISVILLE/SDF SUNNY 73 64 73 N8 29.95R  
LOUISVILLE/LOU SUNNY 72 63 73 VRB5 29.95R  
FORT KNOX SUNNY 70 70 100 CALM 29.96R  

 
 
KYZ035>037-039>044-047>052-055>060-089>105-131400-  
NORTHEAST KENTUCKY  
 
CITY SKY/WX TMP DP RH WIND PRES REMARKS
 
LEXINGTON SUNNY 70 65 84 CALM 29.96R  
COVINGTON SUNNY 69 62 78 N7 29.95R  
FRANKFORT SUNNY 71 64 78 NW3 29.95R  

 
 
KYZ054-064>069-076>088-106>120-131400-  
SOUTHEAST KENTUCKY  
 
CITY SKY/WX TMP DP RH WIND PRES REMARKS
 
JACKSON CLOUDY 67 67 100 CALM 29.96R  
LONDON FOG 66 66 100 CALM 29.96R VSB 3/4  
SOMERSET MOSUNNY 70 63 78 NE3 29.96R  
MIDDLESBORO PTSUNNY 68 68 100 CALM 29.97R  
MONTICELLO MOSUNNY 70 70 100 N8 29.97S  

 
 
 
 
CLICK HERE TO GO TO PREVIOUS BULLETINS.

The Nexlab KY Page Main Text Page